GW4286 Weather Reports


time (UTC)temp
C
wind
direction
speed
KPH
gust
KPH
rain 1hr
cm
rain 24hr
cm
rain mn
cm
humidity
%
barometer
mb
20260505011519 7 184 9.7 20.9 0.00 0.20 0.08 88 1010.0
20260505010022 7 180 11.3 25.7 0.00 0.28 0.08 89 1010.0
20260505004547 7 185 12.9 22.5 0.00 0.36 0.08 89 1009.9
20260505003027 7 199 14.5 24.1 0.00 0.48 0.08 89 1009.6
20260505001516 7 227 16.1 20.9 0.00 0.64 0.08 89 1009.6
20260505000020 7 201 12.9 22.5 0.00 0.79 0.08 88 1009.6
20260504234524 7 196 12.9 24.1 0.00 0.94 0.08 88 1009.2
20260504233025 7 174 14.5 22.5 0.00 1.07 0.08 87 1008.7
20260504231526 7 198 11.3 20.9 0.00 1.19 0.08 88 1008.6
20260504230016 7 200 14.5 20.9 0.00 1.30 0.08 87 1008.3
20260504224534 7 223 14.5 27.4 0.00 1.40 0.08 87 1008.2
20260504223030 7 204 11.3 24.1 0.00 1.52 0.08 85 1007.8
20260504221537 8 208 14.5 29.0 0.00 1.63 0.08 86 1007.6
20260504220028 8 182 12.9 29.0 0.00 1.78 0.08 85 1007.4
20260504214528 8 198 14.5 32.2 0.00 1.88 0.08 83 1007.6
20260504213011 9 174 16.1 35.4 0.00 1.88 0.08 82 1007.6
20260504211507 9 170 16.1 27.4 0.00 1.88 0.08 83 1007.5
20260504210012 8 157 14.5 25.7 0.00 1.88 0.08 86 1007.6
20260504204533 8 140 12.9 25.7 0.00 1.88 0.08 86 1007.9
20260504203018 8 200 12.9 25.7 0.00 1.88 0.08 85 1008.1
20260504201523 7 180 12.9 24.1 0.00 1.88 0.08 85 1008.0
20260504200009 8 170 12.9 25.7 0.00 1.88 0.08 85 1008.2
20260504194526 8 169 12.9 32.2 0.00 1.88 0.08 85 1007.9
20260504193018 8 194 14.5 29.0 0.00 1.88 0.08 85 1008.0
20260504191524 8 186 17.7 38.6 0.00 1.96 0.08 81 1007.9
20260504190030 10 165 20.9 37.0 0.00 2.01 0.08 79 1007.7
20260504184540 10 167 20.9 37.0 0.00 2.06 0.08 81 1007.5
20260504183011 10 209 19.3 37.0 0.00 2.16 0.08 81 1007.7
20260504181519 10 184 19.3 40.2 0.00 2.24 0.08 80 1007.6
20260504180033 10 162 20.9 41.8 0.00 2.29 0.08 80 1007.5
20260504174523 10 201 16.1 35.4 0.00 2.36 0.08 78 1007.6
20260504173014 10 189 17.7 38.6 0.00 2.49 0.08 78 1007.6
20260504171514 10 209 19.3 32.2 0.00 2.59 0.08 80 1007.7
20260504081504 5 247 19.3 35.4 0.00 5.69 0.08 85 1004.5
20260504050020 5 244 25.7 46.7 0.00 5.69 0.08 94 1001.7
20260504044529 5 269 24.1 46.7 0.00 5.69 0.08 96 1001.6
20260504043028 5 244 20.9 43.5 0.00 5.66 0.05 97 1001.5
20260504041510 5 229 22.5 48.3 0.03 5.66 0.05 98 1001.4
20260504040018 5 248 25.7 45.1 0.05 5.66 0.05 98 1001.2
20260504034517 5 232 19.3 40.2 0.05 5.66 0.05 98 1001.1
20260504033009 5 284 17.7 43.5 0.05 5.64 0.03 98 1001.0
20260504031508 5 289 25.7 46.7 0.05 5.64 0.00 98 1000.8
20260504030011 5 267 25.7 49.9 0.05 5.61 0.00 99 1000.6
20260504024512 5 242 27.4 48.3 0.08 5.61 5.61 99 1000.4
20260504023010 5 273 27.4 45.1 0.08 5.59 5.59 99 1000.2
20260504021507 5 285 30.6 46.7 0.08 5.56 5.56 99 1000.1
20260504020014 5 273 30.6 51.5 0.13 5.54 5.54 99 999.9
20260504014509 5 303 32.2 48.3 0.20 5.54 5.54 99 999.5
20260504013023 5 290 30.6 51.5 0.30 5.51 5.51 99 999.3